Weather History for KFKL - January, 2013

Change the Weather History Date:

Sunday, January 20, 2013

  Actual Average Record
Temperature  
Mean Temperature 32 °F -  
Max Temperature 44 °F 32 °F 62 °F (1933)
Min Temperature 19 °F 14 °F -12 °F (1948)
Degree Days  
Heating Degree Days 34    
Moisture  
Dew Point 15 °F    
Average Humidity 59    
Maximum Humidity 74    
Minimum Humidity 43    
Precipitation  
Precipitation 0.00 in - - ()
Sea Level Pressure  
Sea Level Pressure 29.92 in    
Wind  
Wind Speed 17 mph (WSW)    
Max Wind Speed 30 mph    
Max Gust Speed 39 mph    
Visibility 10 miles    
Events      
Averages and records for this station are not official NWS values.
T = Trace of Precipitation, MM = Missing Value Source: NWS Daily Summary

Daily Weather History Graph

Daily Weather History Graph

Search for Another Location

Airport or City:

Trip Planner

Search our weather history database for the weather conditions in past years. The results will help you decide how hot, cold, wet, or windy it might be!

Date:

Astronomy

Jan. 20, 2013 Rise Set
Actual Time 7:40 AM EST 5:21 PM EST
Civil Twilight 7:10 AM EST 5:51 PM EST
Nautical Twilight 6:36 AM EST 6:25 PM EST
Astronomical Twilight 6:03 AM EST 6:57 PM EST
Moon 12:21 PM EST (1/20) 2:10 AM EST (1/20)
Length of Visible Light 10h 40m
Length of Day
9h 40m
Waxing Gibbous, 66% of the Moon is Illuminated
Jan 20
Waxing Gibbous
Jan 26
Full
Feb 3
Last Quarter
Feb 10
New
Feb 17
First Quarter

Hourly Weather History & Observations

Time (EST) Temp. Windchill Dew Point Humidity Pressure Visibility Wind Dir Wind Speed Gust Speed Precip Events Conditions
12:15 AM 44.6 °F 37.2 °F 23.0 °F 43% 29.73 in 10.0 mi SW 17.3 mph 27.6 mph N/A   Overcast
12:35 AM 44.6 °F 36.1 °F 24.8 °F 46% 29.72 in 10.0 mi SW 21.9 mph 29.9 mph N/A   Overcast
12:55 AM 44.6 °F 37.2 °F 24.8 °F 46% 29.71 in 10.0 mi SSW 17.3 mph 27.6 mph N/A   Overcast
1:15 AM 44.6 °F 37.2 °F 24.8 °F 46% 29.70 in 10.0 mi SSW 17.3 mph 23.0 mph N/A   Overcast
1:35 AM 44.6 °F 37.2 °F 24.8 °F 46% 29.70 in 10.0 mi SW 17.3 mph 31.1 mph N/A   Overcast
1:55 AM 42.8 °F 34.8 °F 24.8 °F 49% 29.69 in 10.0 mi SSW 17.3 mph 31.1 mph N/A   Overcast
2:15 AM 42.8 °F 34.3 °F 24.8 °F 49% 29.69 in 10.0 mi SSW 19.6 mph 23.0 mph N/A   Overcast
2:35 AM 42.8 °F 34.0 °F 26.6 °F 53% 29.68 in 10.0 mi SSW 20.7 mph 31.1 mph N/A   Overcast
2:55 AM 42.8 °F 34.8 °F 26.6 °F 53% 29.68 in 10.0 mi SSW 17.3 mph 27.6 mph N/A   Overcast
3:15 AM 42.8 °F 34.5 °F 26.6 °F 53% 29.68 in 10.0 mi SSW 18.4 mph 27.6 mph N/A   Overcast
3:35 AM 41.0 °F 33.5 °F 26.6 °F 57% 29.68 in 10.0 mi SSW 13.8 mph 23.0 mph N/A   Overcast
3:55 AM 41.0 °F 32.2 °F 26.6 °F 57% 29.68 in 10.0 mi SW 18.4 mph 23.0 mph N/A   Mostly Cloudy
4:15 AM 42.8 °F 33.8 °F 28.4 °F 57% 29.68 in 10.0 mi WSW 21.9 mph 31.1 mph N/A   Overcast
4:35 AM 42.8 °F 34.8 °F 28.4 °F 57% 29.68 in 10.0 mi WSW 17.3 mph 34.5 mph N/A   Overcast
4:55 AM 42.8 °F 34.0 °F 28.4 °F 57% 29.67 in 10.0 mi WSW 20.7 mph 36.8 mph N/A   Overcast
5:15 AM 42.8 °F 34.8 °F 28.4 °F 57% 29.68 in 10.0 mi WSW 17.3 mph 27.6 mph N/A   Overcast
5:35 AM 42.8 °F 34.0 °F 28.4 °F 57% 29.69 in 10.0 mi West 20.7 mph 35.7 mph N/A   Overcast
5:55 AM 39.2 °F 27.4 °F 19.4 °F 45% 29.71 in 10.0 mi West 29.9 mph 39.1 mph N/A   Scattered Clouds
6:15 AM 37.4 °F 26.1 °F 17.6 °F 45% 29.73 in 10.0 mi West 24.2 mph 35.7 mph N/A   Clear
6:35 AM 37.4 °F 26.6 °F 19.4 °F 48% 29.75 in 10.0 mi West 21.9 mph 35.7 mph N/A   Clear
6:55 AM 35.6 °F 25.2 °F 17.6 °F 48% 29.77 in 10.0 mi West 18.4 mph 32.2 mph N/A   Scattered Clouds
7:15 AM 35.6 °F 25.2 °F 17.6 °F 48% 29.79 in 10.0 mi West 18.4 mph 32.2 mph N/A   Overcast
7:35 AM 32.0 °F 20.5 °F 17.6 °F 55% 29.81 in 10.0 mi West 18.4 mph 34.5 mph N/A   Overcast
7:55 AM 30.2 °F 16.8 °F 17.6 °F 60% 29.83 in 10.0 mi West 23.0 mph 33.4 mph N/A   Mostly Cloudy
8:15 AM 30.2 °F 17.8 °F 17.6 °F 60% 29.84 in 10.0 mi West 19.6 mph 25.3 mph N/A   Partly Cloudy
8:35 AM 28.4 °F 14.7 °F 15.8 °F 59% 29.87 in 10.0 mi West 21.9 mph 31.1 mph N/A   Clear
8:55 AM 28.4 °F 15.8 °F 14.0 °F 55% 29.89 in 10.0 mi West 18.4 mph 26.5 mph N/A   Partly Cloudy
9:15 AM 28.4 °F 15.4 °F 15.8 °F 59% 29.91 in 10.0 mi West 19.6 mph 31.1 mph N/A   Mostly Cloudy
9:35 AM 28.4 °F 17.0 °F 14.0 °F 55% 29.93 in 10.0 mi West 15.0 mph 29.9 mph N/A   Overcast
9:55 AM 28.4 °F 18.5 °F 14.0 °F 55% 29.94 in 10.0 mi WNW 11.5 mph 20.7 mph N/A   Overcast
10:15 AM 26.6 °F 13.4 °F 14.0 °F 59% 29.95 in 10.0 mi West 18.4 mph 28.8 mph N/A   Overcast
10:35 AM 26.6 °F 12.4 °F 14.0 °F 59% 29.97 in 10.0 mi West 21.9 mph 28.8 mph N/A   Overcast
10:55 AM 26.6 °F 12.4 °F 12.2 °F 55% 29.98 in 10.0 mi West 21.9 mph 31.1 mph N/A   Overcast
11:15 AM 24.8 °F 12.9 °F 12.2 °F 59% 29.98 in 10.0 mi WNW 13.8 mph 31.1 mph N/A   Mostly Cloudy
11:35 AM 24.8 °F 11.9 °F 12.2 °F 59% 29.99 in 7.0 mi WNW 16.1 mph 26.5 mph N/A   Overcast
11:55 AM 23.0 °F 10.1 °F 14.0 °F 68% 30.00 in 4.0 mi West 15.0 mph 23.0 mph N/A   Overcast
12:15 PM 24.8 °F 10.0 °F 12.2 °F 59% 30.01 in 10.0 mi West 21.9 mph 28.8 mph N/A   Overcast
12:35 PM 23.0 °F 8.3 °F 10.4 °F 59% 30.01 in 9.0 mi West 19.6 mph 26.5 mph N/A   Overcast
12:55 PM 23.0 °F 10.6 °F 10.4 °F 59% 30.00 in 10.0 mi West 13.8 mph 26.5 mph N/A   Overcast
1:15 PM 21.2 °F 8.3 °F 8.6 °F 58% 30.01 in 9.0 mi WNW 13.8 mph 21.9 mph N/A   Overcast
1:35 PM 21.2 °F 8.3 °F 8.6 °F 58% 30.01 in 10.0 mi WNW 13.8 mph 25.3 mph N/A   Overcast
1:55 PM 21.2 °F 8.3 °F 10.4 °F 63% 30.02 in 10.0 mi West 13.8 mph 24.2 mph N/A   Overcast
2:15 PM 21.2 °F 8.9 °F 12.2 °F 68% 30.03 in 8.0 mi WNW 12.7 mph 17.3 mph N/A   Overcast
2:35 PM 19.4 °F 5.5 °F 12.2 °F 74% 30.03 in 3.0 mi West 15.0 mph 19.6 mph N/A   Overcast
2:55 PM 19.4 °F 5.0 °F 10.4 °F 68% 30.04 in 10.0 mi West 16.1 mph 23.0 mph N/A   Overcast
3:15 PM 21.2 °F 6.4 °F 8.6 °F 58% 30.04 in 10.0 mi West 18.4 mph - N/A   Overcast
3:35 PM 21.2 °F 7.8 °F 8.6 °F 58% 30.04 in 10.0 mi West 15.0 mph 21.9 mph N/A   Overcast
3:55 PM 21.2 °F 8.9 °F 8.6 °F 58% 30.04 in 10.0 mi WSW 12.7 mph 18.4 mph N/A   Overcast
4:15 PM 19.4 °F 7.2 °F 8.6 °F 63% 30.04 in 10.0 mi WSW 11.5 mph 17.3 mph N/A   Overcast
4:35 PM 19.4 °F 5.5 °F 8.6 °F 63% 30.05 in 10.0 mi West 15.0 mph 21.9 mph N/A   Overcast
4:55 PM 19.4 °F 9.5 °F 8.6 °F 63% 30.07 in 10.0 mi West 8.1 mph 17.3 mph N/A   Overcast
5:15 PM 19.4 °F 7.9 °F 6.8 °F 58% 30.07 in 10.0 mi WNW 10.4 mph 18.4 mph N/A   Overcast
5:35 PM 19.4 °F 6.6 °F 8.6 °F 63% 30.07 in 10.0 mi West 12.7 mph 18.4 mph N/A   Overcast
5:55 PM 19.4 °F 7.9 °F 8.6 °F 63% 30.08 in 10.0 mi West 10.4 mph 16.1 mph N/A   Overcast
6:15 PM 19.4 °F 8.6 °F 8.6 °F 63% 30.08 in 10.0 mi WNW 9.2 mph - N/A   Overcast
6:35 PM 19.4 °F 9.5 °F 8.6 °F 63% 30.07 in 10.0 mi West 8.1 mph - N/A   Overcast
6:55 PM 19.4 °F 9.5 °F 8.6 °F 63% 30.08 in 10.0 mi West 8.1 mph - N/A   Overcast
7:15 PM 19.4 °F 12.8 °F 8.6 °F 63% 30.09 in 10.0 mi WNW 4.6 mph - N/A   Overcast
7:35 PM 19.4 °F 9.5 °F 8.6 °F 63% 30.09 in 10.0 mi WNW 8.1 mph - N/A   Overcast
7:55 PM 19.4 °F 11.5 °F 10.4 °F 68% 30.09 in 10.0 mi West 5.8 mph - N/A   Overcast
8:15 PM 19.4 °F 9.5 °F 8.6 °F 63% 30.09 in 10.0 mi West 8.1 mph - N/A   Overcast
8:35 PM 19.4 °F 11.5 °F 10.4 °F 68% 30.08 in 10.0 mi WSW 5.8 mph - N/A   Overcast
8:55 PM 19.4 °F 11.5 °F 10.4 °F 68% 30.08 in 10.0 mi WSW 5.8 mph - N/A   Overcast
9:15 PM 19.4 °F 12.8 °F 10.4 °F 68% 30.08 in 10.0 mi WSW 4.6 mph - N/A   Overcast
9:35 PM 19.4 °F 12.8 °F 10.4 °F 68% 30.08 in 10.0 mi SW 4.6 mph - N/A   Overcast
9:55 PM 19.4 °F 10.4 °F 10.4 °F 68% 30.08 in 10.0 mi SW 6.9 mph - N/A   Overcast
10:15 PM 19.4 °F 9.5 °F 10.4 °F 68% 30.07 in 10.0 mi WSW 8.1 mph - N/A   Overcast
10:35 PM 19.4 °F 9.5 °F 10.4 °F 68% 30.07 in 10.0 mi SW 8.1 mph - N/A   Overcast
10:55 PM 19.4 °F 10.4 °F 10.4 °F 68% 30.06 in 10.0 mi SW 6.9 mph - N/A   Overcast
11:15 PM 19.4 °F 8.6 °F 10.4 °F 68% 30.05 in 10.0 mi WSW 9.2 mph - N/A   Overcast
11:35 PM 19.4 °F 8.6 °F 10.4 °F 68% 30.05 in 10.0 mi WSW 9.2 mph - N/A   Overcast
11:55 PM 19.4 °F 7.9 °F 10.4 °F 68% 30.05 in 10.0 mi WSW 10.4 mph - N/A   Overcast